sat.trackr.live / text

‹ back to catalog

STARLINK-2736

NORAD 48640 · 2021-044C

PAYLOAD ACTIVE UNKNOWN

§ Identity

Operator
Country
US
Launch date
2021-05-26
Launch site
AFETR
Launch vehicle
Mass (kg)
RCS (m²)

Purposes: comms

External: N2YO · Heavens-Above · Gunter

§ Orbital elements

Epoch: 2026-09-19T17:51:01.905120Z

Period
94.01 min
Inclination
53.1598°
Eccentricity
0.0001326
Mean motion
15.31696591 rev/d
Perigee alt
469.8 km
Apogee alt
471.7 km
Semi-major
6,848.9 km
B*
-4.7682e-5
RAAN
290.7233°
Arg perigee
80.9945°
Mean anomaly
279.1206°
Rev number
29,355

§ Raw data

STARLINK-27361 48640U 21044C   26262.74377205 -.00001844  00000+0 -47682-4 0  99952 48640  53.1598 290.7233 0001326  80.9945 279.1206 15.31696591293555

JSON: /api/v1/satellites/48640 · /tle

For live sub-satellite position, see the globe view (requires WebGL).

§ Visibility from observer

Set your observer location to see the next 7 days of passes ≥ 10°. The values pass through the URL so the page stays shareable.

No JS? Fill the form by hand. The geolocation button needs JavaScript.